Regional Weather Roundup
Issued by NWS

Home | Current Version | Previous Version | Graphics & Text | Print | Product List | Glossary On
Versions: 1 2 3 4 5 6 7 8 9 10 11 12 13 14 15 16 17 18 19 20 21 22 23 24 25 26 27 28 29 30 31 32 33 34 35 36 37 38 39 40 41 42 43 44 45 46 47 48 49 50
000
ASUS43 KFSD 240902
RWRSD

WEATHER ROUNDUP FOR SOUTH DAKOTA
NATIONAL WEATHER SERVICE SIOUX FALLS SD
400 AM CDT SUN JUL 24 2016

NOTE: "FAIR" INDICATES FEW OR NO CLOUDS BELOW 12,000 FEET WITH NO
SIGNIFICANT WEATHER AND/OR OBSTRUCTIONS TO VISIBILITY.


SDZ001>005-009-010-012>017-241000-
NORTHWEST AND NORTH CENTRAL SOUTH DAKOTA

CITY           SKY/WX    TMP DP  RH WIND       PRES   REMARKS
BUFFALO          N/A     61  48  62 NW6       30.04F
FAITH            N/A     60  45  57 NW10      30.06S
MOBRIDGE       CLEAR     64  56  75 NW8       29.99R
$$

SDZ012>016-024>037-041>051-057-063-072>074-241000-
SOUTHWEST AND SOUTH CENTRAL SOUTH DAKOTA

CITY           SKY/WX    TMP DP  RH WIND       PRES   REMARKS
RAPID CTY ARPT CLOUDY    65  44  46 NW10      30.08F
PIERRE         CLEAR     64  55  72 NW10      29.99R
CUSTER         CLOUDY    62  38  40 NE8       30.21S
ELLSWORTH AFB  MOCLDY    70  43  37 NW8       30.08F
PHILIP         CLOUDY    66  47  50 N12       30.00F
PINE RIDGE     PTCLDY    58  52  80 E5        30.07F
WINNER         FAIR      66  56  70 N8        29.96F
$$

SDZ004>011-016>023-039-040-241000-
NORTHEAST SOUTH DAKOTA

CITY           SKY/WX    TMP DP  RH WIND       PRES   REMARKS
ABERDEEN       CLEAR     65  58  78 NW9       29.93R
WATERTOWN      CLEAR     71  66  84 NW7       29.90S
BROOKINGS      CLEAR     68  67  96 CALM      29.90S
SISSETON         N/A     69  60  73 NW9       29.85R
$$

SDZ017-020-022-023-036>040-048>070-241000-
SOUTHEAST SOUTH DAKOTA

CITY           SKY/WX    TMP DP  RH WIND       PRES   REMARKS
SIOUX FALLS    CLEAR     69  66  90 NW5       29.90R
HURON          CLEAR     65  61  87 W8        29.93R
CHAMBERLAIN    PTCLDY    67  64  91 NW8       29.97S
MITCHELL       CLEAR     67  63  87 W7        29.93R
YANKTON        PTCLDY    72  64  78 NW8       29.91R
$$

ABBREVIATIONS USED IN REMARKS
   TC - TEMPERATURE IN CELSIUS
  WCI - WIND CHILL INDEX
   HX - HEAT INDEX
  VSB - VISIBILITY




USA.gov is the U.S. government's official web portal to all federal, state and local government web resources and services.